Regional Weather Roundup
Issued by NWS

Home | Current Version | Previous Version | Graphics & Text | Print | Product List | Glossary On
Versions: 1 2 3 4 5 6 7 8 9 10 11 12 13 14 15 16 17 18 19 20 21 22 23 24 25 26 27 28 29 30 31 32 33 34 35 36 37 38 39 40 41 42 43 44 45 46 47 48 49 50
000
ASUS43 KLOT 051700
RWRIL

ILLINOIS REGIONAL WEATHER ROUNDUP
NATIONAL WEATHER SERVICE CHICAGO/ROMEOVILLE IL
1200 PM CDT TUE MAY 05 2015

NOTE: "FAIR" INDICATES FEW OR NO CLOUDS BELOW 12,000 FEET WITH NO
SIGNIFICANT WEATHER AND/OR OBSTRUCTIONS TO VISIBILITY.

* THESE STATIONS ARE NOT UNDER NWS QUALITY CONTROL. THEY ALSO MAY NOT
  REPORT WEATHER SUCH AS PRECIPITATION OR FOG.

ILZ001-002-007-009-015-016-024-051800-
NORTHWEST ILLINOIS

CITY           SKY/WX    TMP DP  RH WIND       PRES   REMARKS
MOLINE         CLOUDY    66  60  81 E6        30.17S HAZE
STERLING*      CLOUDY    61  57  88 E12       30.20S
$$

ILZ003-004-008-010-011-017-018-051800-
NORTH CENTRAL ILLINOIS

CITY           SKY/WX    TMP DP  RH WIND       PRES   REMARKS
ROCKFORD       CLOUDY    54  51  90 NE13      30.26S
$$

ILZ005-006-012>014-019>023-051800-
NORTHEAST ILLINOIS

CITY           SKY/WX    TMP DP  RH WIND       PRES   REMARKS
CHICAGO-OHARE  FOG       50  49  96 N10       30.24S VSB 1/2
CHICAGO-MIDWAY CLOUDY    59  53  80 N7        30.23S HAZE
AURORA         CLOUDY    58  54  86 NE9       30.22S FOG
WAUKEGAN       LGT RAIN  47  45  93 NE9       30.26S FOG
DUPAGE AIRPORT FOG       53  52  96 NE10      30.23S VSB 1
WHEELING       CLOUDY    49  47  93 N9        30.27S FOG
NORTHERLY ISL    N/A     49  48  97 N8          N/A
$$

LMZ740>746-051800-
SOUTHERN LAKE MICHIGAN

STATION/POSITION SKY/WX   TEMP    WIND        PRES    VSBY  WAVE
                          AIR SEA DIR/SP/G                  HT/PER
                          (F)     (DEG/KT/KT) (MB)    (MI)  (FT/S)
HARRISON CRIB              46     330/  3/  4   N/A
BURNHAM HARBOR             49     350/  3/  6   N/A
CALUMET HARBOR             49     340/  6/  8   N/A
BURNS HARBOR               54     180/  6/ 14 1023.7R
MICHIGAN CITY              58     180/  5/  7   N/A
MICHIGAN CITY 6N           53 49  160/  6/ 12   N/A           1/ 3
ST. JOSEPH                 54 49  130/  8/  8   N/A           1/ 3
$$

ILZ025>027-034>036-040-047-049-050-058-095>099-051800-
WEST-CENTRAL ILLINOIS

CITY           SKY/WX    TMP DP  RH WIND       PRES   REMARKS
QUINCY         SUNNY     77  60  55 SW9       30.16S
$$

ILZ028>032-037-038-041>044-048-051>054-059>061-051800-
CENTRAL ILLINOIS

CITY           SKY/WX    TMP DP  RH WIND       PRES   REMARKS
DECATUR        MOSUNNY   82  58  43 SW14G20   30.17F HX  82
PEORIA         PTSUNNY   76  63  64 VRB5      30.16F
SPRINGFIELD    MOSUNNY   81  56  42 SW13G23   30.16F HX  81
TAYLORVILLE    NOT AVBL
$$

ILZ033-039-045-046-055>057-062-063-051800-
EAST-CENTRAL ILLINOIS

CITY           SKY/WX    TMP DP  RH WIND       PRES   REMARKS
CHAMPAIGN      MOSUNNY   84  54  35 SW15G24   30.18F HX  83
MATTOON        MOSUNNY   79  53  40 SW8G20    30.19F
$$

ILZ079-100>102-051800-
SOUTHWEST ILLINOIS

CITY           SKY/WX    TMP DP  RH WIND       PRES   REMARKS
ALTON          MOSUNNY   81  57  44 SW9       30.18F HX  81
CAHOKIA*       SUNNY     81  56  42 SW12G18   30.18F HX  81
$$

ILZ064>066-069>071-074>076-080>082-084>086-088>090-092>094-051800-
SOUTH-CENTRAL ILLINOIS

CITY           SKY/WX    TMP DP  RH WIND       PRES   REMARKS
CARBONDALE     MOSUNNY   82  59  45 S12       30.21F HX  82
MARION         MOSUNNY   81  57  44 SW9       30.23F HX  81
MT. VERNON     SUNNY    N/A N/A N/A SW12      30.22F
$$

ILZ067-068-072-073-078-083-087-091-051800-
SOUTHEAST ILLINOIS

CITY           SKY/WX    TMP DP  RH WIND       PRES   REMARKS
LAWRENCEVILLE  MOSUNNY   82  51  34 SW16      30.23F HX  81
FLORA*         SUNNY     82  51  35 SW14G20   30.23S HX  81
$$

ABBREVIATIONS USED IN REMARKS
   TC - TEMPERATURE IN CELSIUS
  WCI - WIND CHILL INDEX
   HX - HEAT INDEX
  VSB - VISIBILITY
$$




USA.gov is the U.S. government's official web portal to all federal, state and local government web resources and services.